User: anonymous   Login
Location: Hancock Field Station
(44.9202°N, 120.4259°W)
Time: 06:12:11
(UTC-08:00)
Language:

Cosmos 1707 - Orbit

View from above orbital plane
View from above orbital plane
View from above satellite
View from above satellite

Ground track
Ground track

The orbit data is extracted from the following two-line orbital elements,

1 16326U 85113A   14325.76974583  .00006478  00000-0  40250-3 0   642
2 16326 082.5220 048.2916 0009734 297.5929 062.4311 15.09468573575546
Epoch (UTC): 21 November 2014 18:28:26
Eccentricity: 0.0009734
inclination: 82.5220°
perigee height: 531 km
apogee height: 544 km
right ascension of ascending node: 48.2916°
argument of perigee: 297.5929°
revolutions per day: 15.09468573
mean anomaly at epoch: 62.4311°
orbit number at epoch: 57554

The dashed part of the orbit path shows where the satellite is in the earth's shadow,  

DLR